Home > Weather > Amarillo > Past weeks

Flag for USA Past Weather in Amarillo, Texas, USA — Yesterday and Last 2 Weeks

Now
68 °F

Sunny.


Feels Like: 68 °F
Forecast: 69 / 88 °F
Wind: 9 mph from Northwest

Location: Amarillo International Airport

Current Time: Jun 26, 2016 at 8:57:44 AM

Latest Report: Jun 26, 2016 at 7:53 AM


Visibility: 10 mi

Pressure: 29.99 "Hg (26.33 "Hg at 1117m altitude)

Humidity: 76%

Dew Point: 60 °F

Location of AmarilloLocation

Past Weather in Amarillo — Graph

°F

Amarillo Temperature Yesterday

Maximum temperature yesterday: 95 °F (at 4:53 PM)
Minimum temperature yesterday: 69 °F (at 6:53 AM)
Average temperature yesterday: 82 °F

High & Low Weather Summary for the Past Weeks

 TemperatureHumidityPressure
High103 °F (Jun 17, 5:53 PM)97% (Jun 14, 4:57 AM)30.19 "Hg (Jun 14, 4:57 AM)
Low61 °F (Jun 13, 9:00 PM)8% (Jun 17, 4:53 PM)29.68 "Hg (Jun 13, 6:53 PM)
Average80 °F55%29.89 "Hg
* Reported Jun 11 6:53 AM — Jun 26 6:53 AM, Amarillo, Weather by CustomWeather, © 2016

Note: Actual official high and low records may vary slightly from our data, if they occured in-between our weather recording intervals... More about our weather records

Advertising

Amarillo Weather History for the Previous 24 Hours

Scroll right to see more
 ConditionsComfort  
Time TempWeatherWind HumidityBarometerVisibility
6:53 AM
Sun, Jun 26
65 °FClear.5 mph85%29.99 "Hg10 mi
5:53 AM66 °FClear.6 mph81%29.97 "Hg10 mi
4:53 AM66 °FClear.6 mph81%29.98 "Hg10 mi
3:53 AM69 °FClear.3 mph73%29.97 "Hg10 mi
2:53 AM70 °FClear.7 mph71%29.97 "Hg10 mi
1:53 AM72 °FClear.12 mph66%29.97 "Hg10 mi
12:53 AM75 °FClear.8 mph55%29.95 "Hg10 mi
11:53 PM
Sat, Jun 25
76 °FClear.8 mph60%29.93 "Hg10 mi
10:53 PM81 °FClear.17 mph51%29.90 "Hg10 mi
9:53 PM82 °FSunny.17 mph43%29.88 "Hg10 mi
8:53 PM85 °FSunny.23 mph39%29.83 "Hg10 mi
7:53 PM89 °FSunny.21 mph31%29.78 "Hg10 mi
6:53 PM91 °FSunny.23 mph30%29.79 "Hg10 mi
5:53 PM94 °FSunny.23 mph27%29.79 "Hg10 mi
4:53 PM95 °FSunny.21 mph23%29.81 "Hg10 mi
3:53 PM94 °FSunny.18 mph28%29.82 "Hg10 mi
2:53 PM94 °FSunny.20 mph28%29.83 "Hg10 mi
1:53 PM94 °FSunny.16 mph28%29.84 "Hg10 mi
12:53 PM91 °FSunny.24 mph33%29.85 "Hg10 mi
11:53 AM89 °FSunny.18 mph38%29.86 "Hg10 mi
10:53 AM85 °FSunny.18 mph45%29.87 "Hg10 mi
9:53 AM80 °FSunny.28 mph51%29.88 "Hg10 mi
8:53 AM77 °FSunny.24 mph56%29.88 "Hg10 mi
Weather by CustomWeather, © 2016

See weather overviewHow to use our weather pages